EJU59TE EHAM-EGMC

Flight info

Callsign EJU59TE
Flight time 0h 33m
Altitude 20000
Route IDRID L980 XAMAN
Aircraft A320/M-SDE2E3FGHIJ1RWXYZ/LB1

Departure

Time 2026-04-17 13:06
Airport Amsterdam Airport Schiphol (EHAM)

Arrival

Time 2026-04-17 13:39
Airport London Southend Airport (EGMC)
Time Latitude Longitude Altitude Speed Heading
2026-04-17 12:33 52.31009 4.75405 -1 ft 0 kts 148°
2026-04-17 12:57 52.31013 4.75400 -1 ft 4 kts 149°
2026-04-17 12:57 52.31036 4.75380 -1 ft 4 kts 135°
2026-04-17 12:57 52.31041 4.75358 -1 ft 4 kts 74°
2026-04-17 12:58 52.31037 4.75341 -1 ft 0 kts 70°
2026-04-17 12:59 52.31043 4.75357 -1 ft 4 kts 59°
2026-04-17 13:00 52.31080 4.75441 -1 ft 13 kts 56°
2026-04-17 13:00 52.31165 4.75496 -1 ft 15 kts 356°
2026-04-17 13:00 52.31273 4.75485 -1 ft 16 kts 357°
2026-04-17 13:00 52.31378 4.75475 -1 ft 14 kts 357°
2026-04-17 13:01 52.31428 4.75522 -1 ft 8 kts 77°
2026-04-17 13:01 52.31433 4.75615 -1 ft 9 kts 86°
2026-04-17 13:01 52.31436 4.75724 -1 ft 11 kts 88°
2026-04-17 13:01 52.31441 4.75854 -1 ft 12 kts 86°
2026-04-17 13:02 52.31446 4.75984 -1 ft 11 kts 86°
2026-04-17 13:02 52.31452 4.76136 -1 ft 19 kts 86°
2026-04-17 13:02 52.31459 4.76368 -1 ft 22 kts 87°
2026-04-17 13:02 52.31469 4.76636 -1 ft 25 kts 87°
2026-04-17 13:03 52.31479 4.76940 -1 ft 27 kts 86°
2026-04-17 13:03 52.31447 4.77222 -1 ft 25 kts 129°
2026-04-17 13:03 52.31337 4.77429 -1 ft 22 kts 132°
2026-04-17 13:03 52.31191 4.77501 -1 ft 24 kts 183°
2026-04-17 13:04 52.31017 4.77485 -1 ft 26 kts 183°
2026-04-17 13:04 52.30832 4.77467 -1 ft 25 kts 183°
2026-04-17 13:04 52.30683 4.77458 -1 ft 19 kts 172°
2026-04-17 13:04 52.30580 4.77531 -1 ft 16 kts 153°
2026-04-17 13:05 52.30474 4.77621 -1 ft 17 kts 153°
2026-04-17 13:05 52.30418 4.77641 -1 ft 8 kts 210°
2026-04-17 13:05 52.30325 4.77404 -3 ft 58 kts 238°
2026-04-17 13:05 52.29986 4.76522 -2 ft 122 kts 238°
2026-04-17 13:06 52.29444 4.75122 137 ft 158 kts 237°
2026-04-17 13:06 52.28868 4.73659 973 ft 151 kts 237°
2026-04-17 13:06 52.28282 4.72145 1537 ft 167 kts 236°
2026-04-17 13:06 52.27628 4.70454 1923 ft 189 kts 233°
2026-04-17 13:07 52.26667 4.68757 2310 ft 214 kts 223°
2026-04-17 13:07 52.25557 4.66994 2828 ft 236 kts 223°
2026-04-17 13:07 52.24430 4.64965 3687 ft 247 kts 237°
2026-04-17 13:07 52.23775 4.62325 4670 ft 253 kts 248°
2026-04-17 13:08 52.23207 4.59590 5657 ft 257 kts 248°
2026-04-17 13:08 52.22631 4.56811 6633 ft 260 kts 248°
2026-04-17 13:08 52.22048 4.53995 7536 ft 264 kts 249°
2026-04-17 13:08 52.21457 4.51153 8469 ft 266 kts 249°
2026-04-17 13:09 52.20857 4.48279 9404 ft 269 kts 250°
2026-04-17 13:09 52.20251 4.45376 10318 ft 272 kts 250°
2026-04-17 13:09 52.19615 4.42349 10718 ft 294 kts 250°
2026-04-17 13:09 52.18934 4.39114 11237 ft 307 kts 250°
2026-04-17 13:10 52.18232 4.35791 12021 ft 312 kts 250°
2026-04-17 13:10 52.17522 4.32430 12845 ft 315 kts 250°
2026-04-17 13:10 52.16802 4.29033 13649 ft 319 kts 250°
2026-04-17 13:10 52.16074 4.25603 14399 ft 322 kts 250°
2026-04-17 13:11 52.15337 4.22144 15093 ft 325 kts 250°
2026-04-17 13:11 52.14591 4.18650 15780 ft 328 kts 250°
2026-04-17 13:11 52.13838 4.15128 16463 ft 331 kts 250°
2026-04-17 13:11 52.13076 4.11571 17151 ft 334 kts 250°
2026-04-17 13:12 52.12306 4.07984 17831 ft 337 kts 250°
2026-04-17 13:12 52.10745 4.00718 19090 ft 343 kts 250°
2026-04-17 13:12 52.09955 3.97039 19690 ft 345 kts 250°
2026-04-17 13:13 52.09160 3.93340 20092 ft 348 kts 250°
2026-04-17 13:13 52.08360 3.89647 20194 ft 341 kts 250°
2026-04-17 13:13 52.07591 3.86103 20216 ft 324 kts 250°
2026-04-17 13:13 52.06853 3.82706 20218 ft 316 kts 250°
2026-04-17 13:14 52.06117 3.79330 20217 ft 332 kts 250°
2026-04-17 13:14 52.05329 3.75723 20214 ft 343 kts 250°
2026-04-17 13:14 52.04528 3.72058 20204 ft 346 kts 250°
2026-04-17 13:14 52.03725 3.68372 20206 ft 346 kts 250°
2026-04-17 13:15 52.02923 3.64687 20198 ft 346 kts 250°
2026-04-17 13:15 52.02116 3.60998 20195 ft 346 kts 250°
2026-04-17 13:15 52.01306 3.57311 20199 ft 346 kts 250°
2026-04-17 13:15 52.00495 3.53628 20201 ft 346 kts 250°
2026-04-17 13:16 51.99600 3.50008 20199 ft 346 kts 243°
2026-04-17 13:16 51.98310 3.46717 20203 ft 346 kts 234°
2026-04-17 13:16 51.96882 3.43568 20198 ft 347 kts 234°
2026-04-17 13:16 51.95455 3.40414 20209 ft 347 kts 234°
2026-04-17 13:17 51.94028 3.37260 20214 ft 347 kts 234°
2026-04-17 13:17 51.92603 3.34107 20214 ft 347 kts 234°
2026-04-17 13:17 51.91177 3.30955 20216 ft 347 kts 234°
2026-04-17 13:17 51.89749 3.27807 20217 ft 347 kts 234°
2026-04-17 13:18 51.88317 3.24660 20216 ft 347 kts 234°
2026-04-17 13:18 51.86888 3.21516 20219 ft 347 kts 234°
2026-04-17 13:18 51.85633 3.18187 20216 ft 347 kts 245°
2026-04-17 13:18 51.84835 3.14518 20215 ft 347 kts 256°
2026-04-17 13:19 51.84492 3.10645 20215 ft 349 kts 263°
2026-04-17 13:19 51.84249 3.06745 20219 ft 349 kts 262°
2026-04-17 13:19 51.84002 3.02898 20214 ft 349 kts 262°
2026-04-17 13:19 51.83745 2.98948 20216 ft 349 kts 262°
2026-04-17 13:20 51.83489 2.95048 20215 ft 349 kts 262°
2026-04-17 13:20 51.83241 2.91149 20225 ft 349 kts 262°
2026-04-17 13:20 51.83013 2.87304 20227 ft 349 kts 263°
2026-04-17 13:20 51.82786 2.83403 20225 ft 349 kts 263°
2026-04-17 13:21 51.82561 2.79492 20223 ft 348 kts 263°
2026-04-17 13:21 51.82335 2.75602 20227 ft 348 kts 263°
2026-04-17 13:21 51.82108 2.71707 20218 ft 348 kts 262°
2026-04-17 13:21 51.81878 2.67809 20217 ft 348 kts 262°
2026-04-17 13:22 51.81647 2.63918 20216 ft 348 kts 262°
2026-04-17 13:22 51.81413 2.60025 20216 ft 348 kts 262°
2026-04-17 13:22 51.81179 2.56136 20210 ft 348 kts 262°
2026-04-17 13:22 51.80944 2.52249 20205 ft 347 kts 262°
2026-04-17 13:23 51.80706 2.48365 20200 ft 347 kts 262°
2026-04-17 13:23 51.80469 2.44482 20204 ft 347 kts 262°
2026-04-17 13:23 51.80230 2.40601 20222 ft 347 kts 262°
2026-04-17 13:23 51.79989 2.36720 20217 ft 347 kts 262°
2026-04-17 13:24 51.79747 2.32843 20214 ft 347 kts 262°
2026-04-17 13:24 51.79500 2.28923 20193 ft 353 kts 262°
2026-04-17 13:24 51.79254 2.24976 20193 ft 354 kts 262°
2026-04-17 13:24 51.79006 2.21022 20015 ft 354 kts 262°
2026-04-17 13:25 51.78756 2.17054 19213 ft 359 kts 262°
2026-04-17 13:25 51.78498 2.13018 18501 ft 362 kts 262°
2026-04-17 13:25 51.78237 2.08971 17857 ft 361 kts 262°
2026-04-17 13:25 51.77974 2.04956 17303 ft 358 kts 262°
2026-04-17 13:26 51.77713 2.00974 16759 ft 355 kts 262°
2026-04-17 13:26 51.77454 1.97021 16241 ft 352 kts 262°
2026-04-17 13:26 51.77196 1.93105 15745 ft 349 kts 261°
2026-04-17 13:26 51.76946 1.89276 15271 ft 346 kts 261°
2026-04-17 13:27 51.76692 1.85430 14789 ft 343 kts 261°
2026-04-17 13:27 51.76436 1.81620 14308 ft 340 kts 261°
2026-04-17 13:27 51.76180 1.77837 13814 ft 337 kts 261°
2026-04-17 13:27 51.75927 1.74090 13250 ft 335 kts 261°
2026-04-17 13:28 51.75676 1.70364 12680 ft 333 kts 262°
2026-04-17 13:28 51.75424 1.66659 12107 ft 331 kts 262°
2026-04-17 13:28 51.75170 1.62977 11539 ft 329 kts 262°
2026-04-17 13:28 51.74918 1.59312 10976 ft 328 kts 262°
2026-04-17 13:29 51.74670 1.55692 10669 ft 319 kts 262°
2026-04-17 13:29 51.74432 1.52212 10542 ft 305 kts 262°
2026-04-17 13:29 51.74202 1.48885 10411 ft 293 kts 262°
2026-04-17 13:29 51.73980 1.45688 10289 ft 281 kts 262°
2026-04-17 13:30 51.73763 1.42614 10147 ft 272 kts 262°
2026-04-17 13:30 51.73552 1.39645 9832 ft 268 kts 262°
2026-04-17 13:30 51.73339 1.36645 9344 ft 270 kts 262°
2026-04-17 13:30 51.73123 1.33635 8910 ft 270 kts 262°
2026-04-17 13:31 51.72909 1.30633 8507 ft 269 kts 262°
2026-04-17 13:31 51.72696 1.27642 8087 ft 268 kts 262°
2026-04-17 13:31 51.72477 1.24599 7367 ft 278 kts 262°
2026-04-17 13:31 51.72247 1.21445 6660 ft 288 kts 262°
2026-04-17 13:32 51.72018 1.18265 6329 ft 281 kts 262°
2026-04-17 13:32 51.71798 1.15204 6177 ft 268 kts 262°
2026-04-17 13:32 51.71592 1.12349 6058 ft 244 kts 262°
2026-04-17 13:32 51.71215 1.09806 5881 ft 228 kts 248°
2026-04-17 13:33 51.70634 1.07478 5518 ft 219 kts 247°
2026-04-17 13:33 51.70073 1.05243 5209 ft 211 kts 247°
2026-04-17 13:33 51.69531 1.03087 4920 ft 204 kts 247°
2026-04-17 13:33 51.69010 1.01008 4610 ft 197 kts 247°
2026-04-17 13:34 51.68504 0.98998 4328 ft 190 kts 246°
2026-04-17 13:34 51.68014 0.97054 4078 ft 185 kts 246°
2026-04-17 13:34 51.67538 0.95167 3803 ft 179 kts 246°
2026-04-17 13:34 51.67079 0.93332 3540 ft 174 kts 246°
2026-04-17 13:35 51.66780 0.92139 3379 ft 172 kts 245°
2026-04-17 13:35 51.66316 0.90379 3113 ft 170 kts 239°
2026-04-17 13:35 51.65698 0.88768 2875 ft 168 kts 235°
2026-04-17 13:35 51.65042 0.87230 2630 ft 165 kts 234°
2026-04-17 13:36 51.64386 0.85734 2409 ft 161 kts 232°
2026-04-17 13:36 51.63738 0.84274 2186 ft 160 kts 232°
2026-04-17 13:36 51.63094 0.82832 1985 ft 158 kts 233°
2026-04-17 13:36 51.62454 0.81400 1763 ft 156 kts 233°
2026-04-17 13:37 51.61818 0.79978 1551 ft 157 kts 233°
2026-04-17 13:37 51.61195 0.78588 1354 ft 147 kts 233°
2026-04-17 13:37 51.60630 0.77326 1159 ft 133 kts 233°
2026-04-17 13:37 51.60089 0.76120 960 ft 131 kts 234°
2026-04-17 13:38 51.59568 0.74947 816 ft 128 kts 233°
2026-04-17 13:38 51.59058 0.73811 624 ft 125 kts 232°
2026-04-17 13:38 51.58545 0.72671 486 ft 126 kts 233°
2026-04-17 13:38 51.58027 0.71517 301 ft 130 kts 232°
2026-04-17 13:39 51.57510 0.70358 111 ft 125 kts 230°
2026-04-17 13:39 51.57028 0.69301 52 ft 91 kts 234°
2026-04-17 13:39 51.56794 0.68782 53 ft 40 kts 234°
2026-04-17 13:39 51.56645 0.68452 55 ft 33 kts 234°
2026-04-17 13:40 51.56536 0.68239 54 ft 13 kts 203°
2026-04-17 13:40 51.56539 0.68208 54 ft 6 kts 47°
2026-04-17 13:40 51.56573 0.68286 53 ft 16 kts 54°
2026-04-17 13:40 51.56673 0.68506 55 ft 29 kts 53°
2026-04-17 13:41 51.56785 0.68760 54 ft 27 kts 53°
2026-04-17 13:41 51.56889 0.68991 53 ft 25 kts 54°
2026-04-17 13:41 51.56987 0.69208 56 ft 23 kts 54°
2026-04-17 13:41 51.57081 0.69415 53 ft 22 kts 54°
2026-04-17 13:42 51.57170 0.69610 53 ft 21 kts 53°
2026-04-17 13:42 51.57246 0.69785 56 ft 17 kts 57°
2026-04-17 13:42 51.57190 0.69906 54 ft 17 kts 145°
2026-04-17 13:42 51.57085 0.70025 54 ft 19 kts 146°
2026-04-17 13:43 51.56978 0.70148 54 ft 14 kts 143°
2026-04-17 13:43 51.56931 0.70205 54 ft 6 kts 120°
2026-04-17 13:43 51.56927 0.70270 54 ft 3 kts 94°
2026-04-17 13:43 51.56926 0.70282 54 ft 0 kts 94°